651 Weather Reports


time (UTC)temp
C
wind
direction
speed
KPH
gust
KPH
rain 1hr
cm
rain 24hr
cm
rain mn
cm
humidity
%
barometer
mb
20260906104607 30 0 0.0 0.0 0.00 0.00 0.00 52 1024.6
20260906103105 29 0 0.0 0.0 0.00 0.00 0.00 53 1024.7
20260906101604 29 0 0.0 0.0 0.00 0.00 0.00 62 1024.7
20260906094604 28 0 0.0 0.0 0.00 0.00 0.00 68 1024.9
20260906093104 28 0 0.0 0.0 0.00 0.00 0.00 69 1024.9
20260906091605 28 0 0.0 0.0 0.00 0.00 0.00 66 1024.9
20260906090104 28 0 0.0 0.0 0.00 0.00 0.00 68 1024.9
20260906084604 28 0 0.0 0.0 0.00 0.00 0.00 67 1024.8
20260906083104 27 0 0.0 0.0 0.00 0.00 0.00 66 1024.8
20260906081606 27 0 0.0 0.0 0.00 0.00 0.00 65 1024.8
20260906080106 27 0 0.0 0.0 0.00 0.00 0.00 64 1024.7
20260906074610 27 0 0.0 0.0 0.00 0.00 0.00 65 1024.6
20260906073108 26 0 0.0 0.0 0.00 0.00 0.00 66 1024.5
20260906071604 25 0 0.0 0.0 0.00 0.00 0.00 68 1024.3
20260906070109 24 0 0.0 0.0 0.00 0.00 0.00 74 1024.3
20260906064602 23 0 0.0 0.0 0.00 0.00 0.00 75 1024.2
20260906063103 23 0 0.0 0.0 0.00 0.00 0.00 76 1024.2
20260906061626 23 0 0.0 0.0 0.00 0.00 0.00 77 1024.1
20260906060128 23 0 0.0 0.0 0.00 0.00 0.00 80 1024.0
20260906054605 22 0 0.0 0.0 0.00 0.00 0.00 83 1023.9
20260906053102 21 0 0.0 0.0 0.00 0.00 0.00 85 1023.8
20260906051609 21 0 0.0 0.0 0.00 0.00 0.00 87 1023.8
20260906050105 21 0 0.0 0.0 0.00 0.00 0.00 85 1023.6
20260906044602 21 0 0.0 0.0 0.00 0.00 0.00 78 1023.7
20260906043107 21 0 0.0 0.0 0.00 0.00 0.00 61 1023.6
20260906041602 21 0 0.0 0.0 0.00 0.00 0.00 50 1023.5
20260906040106 22 0 0.0 0.0 0.00 0.00 0.00 49 1023.5
20260906034607 22 0 0.0 0.0 0.00 0.00 0.00 48 1023.4
20260906033109 23 0 0.0 0.0 0.00 0.00 0.00 47 1023.3
20260906031603 23 0 0.0 0.0 0.00 0.00 0.00 47 1023.1
20260906024608 23 0 0.0 3.2 0.00 0.00 0.00 44 1023.2
20260906023109 23 0 0.0 0.0 0.00 0.00 0.00 44 1023.3
20260906021601 23 0 0.0 1.6 0.00 0.00 0.00 46 1023.5
20260906020108 21 0 0.0 0.0 0.00 0.00 0.00 51 1023.4
20260906014607 20 0 0.0 0.0 0.00 0.00 0.00 55 1023.5
20260906013102 21 0 0.0 0.0 0.00 0.00 0.00 60 1023.6
20260906011608 22 0 0.0 0.0 0.00 0.00 0.00 56 1023.8
20260906010112 22 0 0.0 0.0 0.00 0.00 0.00 50 1023.7
20260906004614 21 0 0.0 0.0 0.00 0.00 0.00 50 1023.7
20260906003112 21 0 0.0 0.0 0.00 0.00 0.00 51 1023.7
20260906001603 22 0 0.0 0.0 0.00 0.00 0.00 51 1023.7
20260906000111 21 0 0.0 0.0 0.00 0.00 0.00 51 1023.8
20260905234609 21 0 0.0 0.0 0.00 0.00 0.00 52 1024.0
20260905233117 21 0 0.0 0.0 0.00 0.00 0.00 52 1024.0
20260905231602 21 0 0.0 0.0 0.00 0.00 0.00 53 1024.0
20260905230110 21 0 0.0 0.0 0.00 0.00 0.00 52 1024.1
20260905224606 21 0 0.0 0.0 0.00 0.00 0.00 51 1024.1
20260905223102 21 0 0.0 0.0 0.00 0.00 0.00 50 1024.2
20260905221604 21 0 0.0 0.0 0.00 0.00 0.00 50 1024.1
20260905220107 21 0 0.0 0.0 0.00 0.00 0.00 50 1024.2
20260905214604 21 0 0.0 0.0 0.00 0.00 0.00 52 1024.1
20260905213108 21 0 0.0 0.0 0.00 0.00 0.00 57 1024.2
20260905211611 21 0 0.0 0.0 0.00 0.00 0.00 59 1024.2
20260905210114 21 0 0.0 0.0 0.00 0.00 0.00 57 1024.4
20260905204603 21 0 0.0 0.0 0.00 0.00 0.00 55 1024.4
20260905203106 21 0 0.0 0.0 0.00 0.00 0.00 58 1024.5
20260905201604 21 0 0.0 0.0 0.00 0.00 0.00 64 1024.5
20260905200106 21 0 0.0 0.0 0.00 0.00 0.00 68 1024.6
20260905194603 21 0 0.0 0.0 0.00 0.00 0.00 75 1024.5
20260905193105 22 0 0.0 0.0 0.00 0.00 0.00 85 1024.6
20260905191606 22 0 0.0 0.0 0.00 0.00 0.00 84 1024.4
20260905190104 22 0 0.0 0.0 0.00 0.00 0.00 82 1024.3
20260905184611 22 0 0.0 0.0 0.00 0.00 0.00 79 1024.2
20260905183118 22 0 0.0 0.0 0.00 0.00 0.00 76 1024.1
20260905181606 22 0 0.0 0.0 0.00 0.00 0.00 74 1023.8
20260905180109 22 0 0.0 0.0 0.00 0.00 0.00 78 1023.6
20260905174604 23 0 0.0 0.0 0.00 0.00 0.00 78 1023.8
20260905173108 23 0 0.0 0.0 0.00 0.00 0.00 79 1023.7
20260905171609 23 0 0.0 0.0 0.00 0.00 0.00 78 1023.7
20260905170111 23 0 0.0 0.0 0.00 0.00 0.00 78 1023.7
20260905164605 24 0 0.0 0.0 0.00 0.00 0.00 77 1023.8
20260905163110 25 0 0.0 0.0 0.00 0.00 0.00 75 1023.8
20260905161608 25 0 0.0 0.0 0.00 0.00 0.00 75 1023.7
20260905160105 25 0 0.0 0.0 0.00 0.00 0.00 73 1023.9
20260905154606 26 0 0.0 0.0 0.00 0.00 0.00 71 1023.9
20260905153117 26 0 0.0 0.0 0.00 0.00 0.00 70 1024.0
20260905151614 27 0 0.0 0.0 0.00 0.00 0.00 68 1023.9
20260905150105 27 0 0.0 0.0 0.00 0.00 0.00 61 1023.9
20260905144609 27 0 0.0 0.0 0.00 0.00 0.00 49 1023.8
20260905143111 28 0 0.0 0.0 0.00 0.00 0.00 55 1024.0
20260905141629 28 0 0.0 0.0 0.00 0.00 0.00 55 1023.9
20260905140109 29 0 0.0 0.0 0.00 0.00 0.00 48 1023.9
20260905134609 29 0 0.0 0.0 0.00 0.00 0.00 45 1023.9
20260905133105 29 0 0.0 0.0 0.00 0.00 0.00 45 1023.9
20260905131619 30 0 0.0 0.0 0.00 0.00 0.00 48 1024.0
20260905130106 29 0 0.0 0.0 0.00 0.00 0.00 51 1024.0
20260905124610 29 0 0.0 0.0 0.00 0.00 0.00 53 1024.1
20260905123115 30 0 0.0 0.0 0.00 0.00 0.00 56 1024.2
20260905121609 30 0 0.0 0.0 0.00 0.00 0.00 53 1024.2
20260905120112 30 0 0.0 0.0 0.00 0.00 0.00 49 1024.3
20260905114606 30 0 0.0 0.0 0.00 0.00 0.00 52 1024.3
20260905113108 30 0 0.0 3.2 0.00 0.00 0.00 56 1024.3
20260905111607 30 0 0.0 3.2 0.00 0.00 0.00 55 1024.4
20260905110109 30 0 0.0 0.0 0.00 0.00 0.00 60 1024.3